| time (UTC) | temp F | wind direction | speed MPH | gust MPH | rain 1hr in | rain 24hr in | rain mn in | humidity % | barometer mb |
| 20260504150904 | 56 | 175 | 5.0 | 9.0 | 0.00 | 0.00 | 0.00 | 59 | 1014.4 |
| 20260504150623 | 56 | 155 | 6.0 | 9.0 | 0.00 | 0.00 | 0.00 | 61 | 1014.5 |
| 20260504141328 | 51 | 240 | 1.0 | 5.0 | 0.00 | 0.00 | 0.00 | 71 | 1012.5 |
| 20260504141053 | 50 | 240 | 1.0 | 4.0 | 0.00 | 0.00 | 0.00 | 73 | 1012.1 |
| 20260504140330 | 49 | 240 | 0.0 | 0.0 | 0.00 | 0.00 | 0.00 | 76 | 1011.9 |
| 20260504130441 | 45 | 211 | 1.0 | 3.0 | 0.00 | 0.00 | 0.00 | 74 | 1009.9 |
| 20260504120137 | 46 | 211 | 1.0 | 4.0 | 0.00 | 0.00 | 0.00 | 71 | 1009.3 |
| 20260504110104 | 47 | 211 | 1.0 | 3.0 | 0.00 | 0.00 | 0.00 | 70 | 1009.7 |
| 20260504100532 | 48 | 211 | 0.0 | 0.0 | 0.00 | 0.00 | 0.00 | 65 | 1010.8 |
| 20260504100251 | 49 | 211 | 0.0 | 0.0 | 0.00 | 0.00 | 0.00 | 64 | 1010.9 |
| 20260504081936 | 53 | 194 | 3.0 | 8.0 | 0.00 | 0.00 | 0.00 | 60 | 1013.8 |
| 20260504081700 | 53 | 309 | 3.0 | 6.0 | 0.00 | 0.00 | 0.00 | 59 | 1013.3 |
| 20260504081156 | 53 | 310 | 4.0 | 10.0 | 0.00 | 0.00 | 0.00 | 59 | 1013.3 |
| 20260504080656 | 53 | 310 | 4.0 | 10.0 | 0.00 | 0.00 | 0.00 | 60 | 1013.4 |
| 20260504050336 | 57 | 252 | 8.0 | 15.0 | 0.00 | 0.00 | 0.00 | 53 | 1016.2 |
| 20260504045836 | 57 | 255 | 8.0 | 15.0 | 0.00 | 0.00 | 0.00 | 53 | 1016.2 |
| 20260504045340 | 57 | 233 | 8.0 | 15.0 | 0.00 | 0.00 | 0.00 | 52 | 1016.5 |
| 20260504045058 | 57 | 242 | 8.0 | 15.0 | 0.00 | 0.00 | 0.00 | 52 | 1016.3 |
| 20260504044335 | 57 | 236 | 8.0 | 15.0 | 0.00 | 0.00 | 0.00 | 52 | 1016.3 |
| 20260504043834 | 58 | 223 | 8.0 | 15.0 | 0.00 | 0.00 | 0.00 | 52 | 1016.6 |
| 20260504043335 | 58 | 223 | 8.0 | 15.0 | 0.00 | 0.00 | 0.00 | 52 | 1016.5 |
| 20260504042831 | 58 | 235 | 7.0 | 15.0 | 0.00 | 0.00 | 0.00 | 51 | 1016.5 |
| 20260504042331 | 58 | 248 | 7.0 | 15.0 | 0.00 | 0.00 | 0.00 | 51 | 1016.5 |
| 20260504042101 | 58 | 242 | 7.0 | 15.0 | 0.00 | 0.00 | 0.00 | 49 | 1016.5 |
| 20260504041330 | 57 | 244 | 6.0 | 13.0 | 0.00 | 0.00 | 0.00 | 49 | 1016.3 |
| 20260504040830 | 58 | 232 | 5.0 | 12.0 | 0.00 | 0.00 | 0.00 | 47 | 1016.5 |
| 20260504040330 | 58 | 236 | 5.0 | 12.0 | 0.00 | 0.00 | 0.00 | 45 | 1016.6 |
| 20260504035831 | 58 | 244 | 5.0 | 10.0 | 0.00 | 0.00 | 0.00 | 44 | 1016.6 |
| 20260504035331 | 58 | 240 | 5.0 | 10.0 | 0.00 | 0.00 | 0.00 | 43 | 1016.8 |
| 20260504034829 | 58 | 223 | 6.0 | 9.0 | 0.00 | 0.00 | 0.00 | 42 | 1016.6 |
| 20260504034558 | 58 | 242 | 6.0 | 0.0 | 0.00 | 0.00 | 0.00 | 41 | 1016.6 |
| 20260504034014 | 58 | 246 | 5.0 | 10.0 | 0.00 | 0.00 | 0.00 | 40 | 1016.7 |
| 20260504033513 | 58 | 171 | 5.0 | 11.0 | 0.00 | 0.00 | 0.00 | 39 | 1016.7 |
| 20260504033012 | 58 | 224 | 5.0 | 11.0 | 0.00 | 0.00 | 0.00 | 39 | 1016.8 |
| 20260504032512 | 58 | 248 | 3.0 | 9.0 | 0.00 | 0.00 | 0.00 | 37 | 1016.8 |
| 20260504032008 | 59 | 237 | 3.0 | 8.0 | 0.00 | 0.00 | 0.00 | 37 | 1016.8 |
| 20260504031507 | 59 | 239 | 4.0 | 9.0 | 0.00 | 0.00 | 0.00 | 36 | 1017.0 |
| 20260504031006 | 59 | 240 | 4.0 | 9.0 | 0.00 | 0.00 | 0.00 | 35 | 1017.1 |
| 20260504030504 | 60 | 242 | 5.0 | 10.0 | 0.00 | 0.00 | 0.00 | 35 | 1017.2 |
| 20260504030002 | 60 | 246 | 5.0 | 12.0 | 0.00 | 0.00 | 0.00 | 34 | 1017.2 |
| 20260504025504 | 60 | 229 | 6.0 | 14.0 | 0.00 | 0.00 | 0.00 | 34 | 1017.3 |
| 20260504025003 | 60 | 237 | 6.0 | 14.0 | 0.00 | 0.00 | 0.00 | 33 | 1017.3 |
| 20260504024500 | 60 | 229 | 6.0 | 11.0 | 0.00 | 0.00 | 0.00 | 33 | 1017.2 |
| 20260504023959 | 61 | 223 | 7.0 | 12.0 | 0.00 | 0.00 | 0.00 | 32 | 1017.3 |
| 20260504023500 | 61 | 227 | 7.0 | 13.0 | 0.00 | 0.00 | 0.00 | 32 | 1017.3 |
| 20260504023001 | 61 | 209 | 7.0 | 14.0 | 0.00 | 0.00 | 0.00 | 31 | 1017.2 |
| 20260504022721 | 61 | 205 | 7.0 | 14.0 | 0.00 | 0.00 | 0.00 | 31 | 1017.2 |
| 20260504022217 | 61 | 227 | 7.0 | 18.0 | 0.00 | 0.00 | 0.00 | 31 | 1017.1 |
| 20260504021457 | 62 | 207 | 6.0 | 18.0 | 0.00 | 0.00 | 0.00 | 30 | 1017.1 |
| 20260504020956 | 62 | 208 | 6.0 | 14.0 | 0.00 | 0.00 | 0.00 | 30 | 1017.2 |
| 20260504020454 | 62 | 204 | 6.0 | 15.0 | 0.00 | 0.00 | 0.00 | 29 | 1017.3 |
| 20260504015950 | 63 | 214 | 6.0 | 15.0 | 0.00 | 0.00 | 0.00 | 29 | 1017.7 |
| 20260504015452 | 63 | 207 | 6.0 | 13.0 | 0.00 | 0.00 | 0.00 | 28 | 1017.6 |
| 20260504014948 | 64 | 225 | 6.0 | 10.0 | 0.00 | 0.00 | 0.00 | 28 | 1017.7 |
| 20260504014447 | 64 | 221 | 5.0 | 10.0 | 0.00 | 0.00 | 0.00 | 26 | 1017.9 |
| 20260504014218 | 65 | 223 | 5.0 | 10.0 | 0.00 | 0.00 | 0.00 | 25 | 1018.0 |
| 20260504013712 | 65 | 248 | 4.0 | 10.0 | 0.00 | 0.00 | 0.00 | 24 | 1018.3 |
| 20260504013209 | 66 | 243 | 4.0 | 8.0 | 0.00 | 0.00 | 0.00 | 23 | 1018.2 |
| 20260504012935 | 66 | 215 | 3.0 | 8.0 | 0.00 | 0.00 | 0.00 | 23 | 1018.3 |
| 20260504012209 | 66 | 194 | 1.0 | 5.0 | 0.00 | 0.00 | 0.00 | 24 | 1018.4 |
| 20260504011433 | 66 | 194 | 1.0 | 5.0 | 0.00 | 0.00 | 0.00 | 24 | 1018.5 |
| 20260504011159 | 67 | 194 | 4.0 | 11.0 | 0.00 | 0.00 | 0.00 | 24 | 1018.7 |
| 20260504010425 | 67 | 194 | 6.0 | 11.0 | 0.00 | 0.00 | 0.00 | 25 | 1018.8 |
| 20260504005924 | 67 | 185 | 6.0 | 13.0 | 0.00 | 0.00 | 0.00 | 24 | 1018.8 |
| 20260504005422 | 67 | 190 | 8.0 | 14.0 | 0.00 | 0.00 | 0.00 | 25 | 1019.0 |
| 20260504004921 | 67 | 223 | 9.0 | 19.0 | 0.00 | 0.00 | 0.00 | 24 | 1018.9 |
| 20260504004418 | 67 | 175 | 8.0 | 19.0 | 0.00 | 0.00 | 0.00 | 24 | 1019.0 |
| 20260504003914 | 68 | 179 | 7.0 | 15.0 | 0.00 | 0.00 | 0.00 | 25 | 1019.1 |
| 20260504003412 | 68 | 238 | 7.0 | 16.0 | 0.00 | 0.00 | 0.00 | 23 | 1019.4 |
| 20260504002907 | 68 | 175 | 8.0 | 16.0 | 0.00 | 0.00 | 0.00 | 23 | 1019.4 |
| 20260504002404 | 69 | 150 | 7.0 | 15.0 | 0.00 | 0.00 | 0.00 | 23 | 1019.6 |
| 20260504002123 | 69 | 184 | 6.0 | 16.0 | 0.00 | 0.00 | 0.00 | 25 | 1020.1 |
| 20260504001359 | 69 | 250 | 7.0 | 16.0 | 0.00 | 0.00 | 0.00 | 24 | 1020.0 |
| 20260504000855 | 69 | 191 | 8.0 | 14.0 | 0.00 | 0.00 | 0.00 | 24 | 1020.2 |
| 20260504000347 | 69 | 184 | 8.0 | 20.0 | 0.00 | 0.00 | 0.00 | 24 | 1020.2 |
| 20260503235837 | 69 | 194 | 8.0 | 20.0 | 0.00 | 0.00 | 0.00 | 24 | 1020.1 |
| 20260503235337 | 69 | 162 | 8.0 | 16.0 | 0.00 | 0.00 | 0.00 | 23 | 1020.2 |
| 20260503234837 | 70 | 167 | 8.0 | 15.0 | 0.00 | 0.00 | 0.00 | 23 | 1020.4 |
| 20260503234338 | 70 | 168 | 8.0 | 16.0 | 0.00 | 0.00 | 0.00 | 22 | 1020.6 |
| 20260503233835 | 71 | 177 | 7.0 | 16.0 | 0.00 | 0.00 | 0.00 | 23 | 1020.7 |
| 20260503233335 | 71 | 190 | 8.0 | 14.0 | 0.00 | 0.00 | 0.00 | 23 | 1020.7 |
| 20260503232831 | 70 | 171 | 8.0 | 16.0 | 0.00 | 0.00 | 0.00 | 22 | 1020.6 |
| 20260503232331 | 71 | 203 | 8.0 | 16.0 | 0.00 | 0.00 | 0.00 | 21 | 1021.0 |
| 20260503231830 | 71 | 221 | 7.0 | 18.0 | 0.00 | 0.00 | 0.00 | 22 | 1021.1 |
| 20260503231559 | 71 | 207 | 7.0 | 18.0 | 0.00 | 0.00 | 0.00 | 22 | 1021.2 |
| 20260503230831 | 71 | 188 | 7.0 | 13.0 | 0.00 | 0.00 | 0.00 | 22 | 1021.2 |
| 20260503230329 | 71 | 159 | 7.0 | 13.0 | 0.00 | 0.00 | 0.00 | 22 | 1021.3 |
| 20260503225829 | 71 | 158 | 7.0 | 15.0 | 0.00 | 0.00 | 0.00 | 22 | 1021.6 |
| 20260503225330 | 71 | 194 | 7.0 | 15.0 | 0.00 | 0.00 | 0.00 | 22 | 1021.7 |
| 20260503224829 | 72 | 175 | 6.0 | 14.0 | 0.00 | 0.00 | 0.00 | 23 | 1021.8 |
| 20260503224329 | 72 | 159 | 6.0 | 14.0 | 0.00 | 0.00 | 0.00 | 23 | 1022.2 |
| 20260503223827 | 72 | 195 | 6.0 | 19.0 | 0.00 | 0.00 | 0.00 | 24 | 1022.2 |
| 20260503223321 | 71 | 225 | 7.0 | 19.0 | 0.00 | 0.00 | 0.00 | 24 | 1022.2 |
| 20260503222819 | 71 | 219 | 7.0 | 12.0 | 0.00 | 0.00 | 0.00 | 24 | 1022.2 |
| 20260503222315 | 70 | 175 | 7.0 | 13.0 | 0.00 | 0.00 | 0.00 | 26 | 1021.9 |
| 20260503221813 | 71 | 168 | 7.0 | 15.0 | 0.00 | 0.00 | 0.00 | 25 | 1022.2 |
| 20260503221314 | 71 | 156 | 7.0 | 15.0 | 0.00 | 0.00 | 0.00 | 25 | 1022.4 |
| 20260503220814 | 70 | 228 | 8.0 | 15.0 | 0.00 | 0.00 | 0.00 | 26 | 1022.2 |
| 20260503220314 | 70 | 144 | 8.0 | 16.0 | 0.00 | 0.00 | 0.00 | 25 | 1022.4 |
| 20260503215813 | 71 | 173 | 6.0 | 16.0 | 0.00 | 0.00 | 0.00 | 25 | 1022.8 |
| 20260503215313 | 71 | 195 | 6.0 | 12.0 | 0.00 | 0.00 | 0.00 | 26 | 1022.9 |
| 20260503214814 | 71 | 193 | 7.0 | 13.0 | 0.00 | 0.00 | 0.00 | 25 | 1023.0 |
| 20260503214313 | 72 | 205 | 6.0 | 13.0 | 0.00 | 0.00 | 0.00 | 25 | 1023.3 |
| 20260503213813 | 72 | 184 | 7.0 | 13.0 | 0.00 | 0.00 | 0.00 | 25 | 1023.4 |
| 20260503213313 | 71 | 188 | 7.0 | 14.0 | 0.00 | 0.00 | 0.00 | 25 | 1023.5 |
| 20260503212813 | 71 | 178 | 6.0 | 14.0 | 0.00 | 0.00 | 0.00 | 25 | 1023.4 |
| 20260503212541 | 71 | 179 | 8.0 | 15.0 | 0.00 | 0.00 | 0.00 | 24 | 1023.2 |
| 20260503211811 | 72 | 221 | 8.0 | 15.0 | 0.00 | 0.00 | 0.00 | 23 | 1023.9 |
| 20260503211529 | 72 | 194 | 6.0 | 12.0 | 0.00 | 0.00 | 0.00 | 24 | 1023.9 |
| 20260503210811 | 72 | 202 | 7.0 | 14.0 | 0.00 | 0.00 | 0.00 | 24 | 1024.1 |
| 20260503210311 | 71 | 213 | 7.0 | 14.0 | 0.00 | 0.00 | 0.00 | 24 | 1023.9 |
| 20260503205809 | 71 | 163 | 6.0 | 12.0 | 0.00 | 0.00 | 0.00 | 24 | 1023.9 |
| 20260503205529 | 71 | 172 | 6.0 | 13.0 | 0.00 | 0.00 | 0.00 | 24 | 1024.4 |
| 20260503204806 | 71 | 141 | 6.0 | 13.0 | 0.00 | 0.00 | 0.00 | 23 | 1024.2 |
| 20260503204307 | 71 | 213 | 7.0 | 14.0 | 0.00 | 0.00 | 0.00 | 25 | 1024.2 |
| 20260503203804 | 71 | 236 | 7.0 | 14.0 | 0.00 | 0.00 | 0.00 | 26 | 1024.2 |
| 20260503203303 | 70 | 161 | 7.0 | 13.0 | 0.00 | 0.00 | 0.00 | 26 | 1024.2 |
| 20260503203026 | 70 | 158 | 7.0 | 15.0 | 0.00 | 0.00 | 0.00 | 25 | 1024.4 |
| 20260503202304 | 70 | 135 | 7.0 | 15.0 | 0.00 | 0.00 | 0.00 | 26 | 1024.4 |
| 20260503202028 | 69 | 163 | 7.0 | 14.0 | 0.00 | 0.00 | 0.00 | 26 | 1024.2 |
| 20260503201518 | 69 | 191 | 7.0 | 13.0 | 0.00 | 0.00 | 0.00 | 26 | 1024.4 |
| 20260503201013 | 69 | 236 | 7.0 | 16.0 | 0.00 | 0.00 | 0.00 | 27 | 1024.0 |
| 20260503200243 | 68 | 204 | 5.0 | 16.0 | 0.00 | 0.00 | 0.00 | 30 | 1023.8 |
| 20260503195736 | 68 | 166 | 4.0 | 11.0 | 0.00 | 0.00 | 0.00 | 27 | 1023.8 |
| 20260503195236 | 67 | 204 | 6.0 | 19.0 | 0.00 | 0.00 | 0.00 | 28 | 1023.9 |
| 20260503194735 | 67 | 206 | 7.0 | 19.0 | 0.00 | 0.00 | 0.00 | 27 | 1023.9 |
| 20260503194236 | 68 | 186 | 6.0 | 11.0 | 0.00 | 0.00 | 0.00 | 27 | 1024.2 |
| 20260503193956 | 68 | 207 | 5.0 | 12.0 | 0.00 | 0.00 | 0.00 | 27 | 1024.5 |
| 20260503193234 | 69 | 207 | 5.0 | 12.0 | 0.00 | 0.00 | 0.00 | 27 | 1024.9 |
| 20260503192734 | 68 | 192 | 5.0 | 9.0 | 0.00 | 0.00 | 0.00 | 28 | 1024.9 |
| 20260503192233 | 67 | 254 | 4.0 | 13.0 | 0.00 | 0.00 | 0.00 | 28 | 1024.2 |
| 20260503191731 | 66 | 139 | 3.0 | 13.0 | 0.00 | 0.00 | 0.00 | 25 | 1024.1 |
| 20260503191455 | 66 | 159 | 4.0 | 8.0 | 0.00 | 0.00 | 0.00 | 23 | 1024.0 |
| 20260503190731 | 66 | 166 | 4.0 | 11.0 | 0.00 | 0.00 | 0.00 | 25 | 1024.2 |
| 20260503190232 | 66 | 160 | 4.0 | 11.0 | 0.00 | 0.00 | 0.00 | 25 | 1024.1 |
| 20260503185730 | 65 | 186 | 4.0 | 9.0 | 0.00 | 0.00 | 0.00 | 27 | 1024.1 |
| 20260503185231 | 65 | 162 | 4.0 | 10.0 | 0.00 | 0.00 | 0.00 | 26 | 1024.2 |
| 20260503184732 | 65 | 198 | 4.0 | 10.0 | 0.00 | 0.00 | 0.00 | 26 | 1024.4 |
| 20260503184231 | 65 | 230 | 4.0 | 9.0 | 0.00 | 0.00 | 0.00 | 28 | 1024.4 |
| 20260503183744 | 65 | 221 | 4.0 | 0.0 | 0.00 | 0.00 | 0.00 | 29 | 1024.6 |
| 20260503183738 | 65 | 147 | 4.0 | 8.0 | 0.00 | 0.00 | 0.00 | 27 | 1024.5 |
| 20260503182802 | 65 | 180 | 4.0 | 10.0 | 0.00 | 0.00 | 0.00 | 30 | 1024.5 |
| 20260503182304 | 65 | 138 | 4.0 | 12.0 | 0.00 | 0.00 | 0.00 | 29 | 1024.6 |
| 20260503181802 | 65 | 180 | 6.0 | 15.0 | 0.00 | 0.00 | 0.00 | 31 | 1024.9 |
| 20260503181302 | 66 | 153 | 6.0 | 15.0 | 0.00 | 0.00 | 0.00 | 28 | 1025.3 |
| 20260503180802 | 67 | 198 | 4.0 | 10.0 | 0.00 | 0.00 | 0.00 | 29 | 1025.7 |
| 20260503180302 | 67 | 132 | 4.0 | 8.0 | 0.00 | 0.00 | 0.00 | 29 | 1025.8 |
| 20260503175802 | 67 | 146 | 5.0 | 9.0 | 0.00 | 0.00 | 0.00 | 28 | 1025.8 |
| 20260503175528 | 67 | 246 | 3.0 | 9.0 | 0.00 | 0.00 | 0.00 | 29 | 1025.8 |
| 20260503174802 | 66 | 185 | 3.0 | 7.0 | 0.00 | 0.00 | 0.00 | 31 | 1025.8 |
| 20260503174301 | 66 | 180 | 4.0 | 7.0 | 0.00 | 0.00 | 0.00 | 31 | 1025.7 |
| 20260503173800 | 65 | 160 | 4.0 | 8.0 | 0.00 | 0.00 | 0.00 | 32 | 1025.3 |
| 20260503173258 | 65 | 144 | 3.0 | 8.0 | 0.00 | 0.00 | 0.00 | 31 | 1025.3 |
| 20260503173019 | 64 | 161 | 3.0 | 7.0 | 0.00 | 0.00 | 0.00 | 33 | 1025.2 |
| 20260503172254 | 64 | 159 | 3.0 | 8.0 | 0.00 | 0.00 | 0.00 | 35 | 1025.5 |
| 20260503171754 | 64 | 113 | 3.0 | 10.0 | 0.00 | 0.00 | 0.00 | 36 | 1025.3 |
| 20260503171251 | 63 | 200 | 4.0 | 10.0 | 0.00 | 0.00 | 0.00 | 37 | 1025.3 |
| 20260503171009 | 63 | 109 | 4.0 | 9.0 | 0.00 | 0.00 | 0.00 | 38 | 1025.2 |
| 20260503170246 | 62 | 138 | 3.0 | 9.0 | 0.00 | 0.00 | 0.00 | 38 | 1025.0 |
| 20260503160208 | 58 | 57 | 3.0 | 7.0 | 0.00 | 0.00 | 0.00 | 46 | 1024.1 |